Location: Bad Salzschlirf
(50.3750°N, 9.3000°E)
Time: 17:56:11
(UTC+02:00)

ISS - Pass Details

Date: 25 May 2020
Orbit: 417 x 420 km, 51.6° (Epoch: 26 May)

Event Time Altitude Azimuth Distance (km) Brightness Sun altitude
Rises 22:18:48 0° 280° (W) 2,365 1.0 -8.1°
Reaches altitude 10° 22:20:54 10° 282° (WNW) 1,501 -0.1 -8.3°
Maximum altitude 22:24:16 75° 8° (N) 439 -3.6 -8.7°
Drops below altitude 10° 22:27:38 10° 95° (E) 1,500 -1.4 -9.0°
Enters shadow 22:28:26 - 96° (E) 1,823 -0.9 -9.1°
